| time (UTC) | temp C | wind direction | speed KPH | gust KPH | rain 1hr cm | rain 24hr cm | rain mn cm | humidity % | barometer mb |
| 20260906003044 | 28 | 5 | 6.4 | 12.9 | 0.00 | 0.00 | 0.00 | 82 | 1011.4 |
| 20260906001558 | 28 | 355 | 9.7 | 17.7 | 0.00 | 0.00 | 0.00 | 80 | 1011.4 |
| 20260906000039 | 28 | 350 | 6.4 | 14.5 | 0.00 | 0.00 | 0.00 | 79 | 1011.4 |
| 20260905234539 | 29 | 5 | 4.8 | 6.4 | 0.00 | 0.00 | 0.00 | 79 | 1011.3 |
| 20260905233039 | 30 | 28 | 3.2 | 8.0 | 0.00 | 0.00 | 0.00 | 76 | 1011.3 |
| 20260905231543 | 30 | 19 | 4.8 | 14.5 | 0.00 | 0.00 | 0.00 | 75 | 1011.1 |
| 20260905230039 | 31 | 5 | 4.8 | 12.9 | 0.00 | 0.00 | 0.00 | 74 | 1011.0 |
| 20260905224544 | 31 | 5 | 3.2 | 14.5 | 0.00 | 0.00 | 0.00 | 74 | 1011.0 |
| 20260905223041 | 31 | 5 | 4.8 | 16.1 | 0.00 | 0.00 | 0.00 | 73 | 1011.0 |
| 20260905221541 | 32 | 40 | 4.8 | 12.9 | 0.00 | 0.00 | 0.00 | 72 | 1011.0 |
| 20260905220036 | 32 | 336 | 6.4 | 12.9 | 0.00 | 0.00 | 0.00 | 73 | 1011.0 |
| 20260905214535 | 32 | 22 | 3.2 | 9.7 | 0.00 | 0.00 | 0.00 | 72 | 1010.9 |
| 20260905213040 | 32 | 51 | 1.6 | 14.5 | 0.00 | 0.00 | 0.00 | 72 | 1010.9 |
| 20260905211542 | 32 | 346 | 3.2 | 8.0 | 0.00 | 0.00 | 0.00 | 72 | 1010.9 |
| 20260905210035 | 32 | 9 | 3.2 | 12.9 | 0.00 | 0.00 | 0.00 | 70 | 1011.1 |
| 20260905204532 | 32 | 15 | 4.8 | 12.9 | 0.00 | 0.00 | 0.00 | 71 | 1011.2 |
| 20260905203045 | 32 | 48 | 6.4 | 14.5 | 0.00 | 0.00 | 0.00 | 71 | 1011.1 |
| 20260905201549 | 32 | 38 | 4.8 | 19.3 | 0.00 | 0.00 | 0.00 | 71 | 1011.1 |
| 20260905200030 | 32 | 9 | 4.8 | 17.7 | 0.00 | 0.00 | 0.00 | 67 | 1011.2 |
| 20260905194528 | 32 | 25 | 3.2 | 12.9 | 0.00 | 0.00 | 0.00 | 70 | 1011.3 |
| 20260905193032 | 33 | 328 | 6.4 | 16.1 | 0.00 | 0.00 | 0.00 | 66 | 1011.2 |
| 20260905191527 | 32 | 318 | 6.4 | 17.7 | 0.00 | 0.00 | 0.00 | 68 | 1011.5 |
| 20260905190021 | 33 | 329 | 6.4 | 16.1 | 0.00 | 0.00 | 0.00 | 67 | 1011.6 |
| 20260905184518 | 32 | 325 | 6.4 | 9.7 | 0.00 | 0.00 | 0.00 | 66 | 1011.8 |
| 20260905183019 | 32 | 335 | 3.2 | 9.7 | 0.00 | 0.00 | 0.00 | 68 | 1011.9 |
| 20260905181517 | 32 | 50 | 4.8 | 17.7 | 0.00 | 0.00 | 0.00 | 69 | 1012.0 |
| 20260905180016 | 32 | 16 | 6.4 | 16.1 | 0.00 | 0.00 | 0.00 | 68 | 1012.1 |
| 20260905174515 | 32 | 303 | 4.8 | 16.1 | 0.00 | 0.00 | 0.00 | 70 | 1012.0 |
| 20260905173011 | 32 | 338 | 4.8 | 16.1 | 0.00 | 0.00 | 0.00 | 70 | 1012.1 |
| 20260905171508 | 32 | 279 | 6.4 | 17.7 | 0.00 | 0.00 | 0.00 | 69 | 1012.2 |
| 20260905170009 | 32 | 315 | 3.2 | 16.1 | 0.00 | 0.00 | 0.00 | 71 | 1012.4 |
| 20260905164504 | 31 | 355 | 3.2 | 17.7 | 0.00 | 0.00 | 0.00 | 72 | 1012.5 |
| 20260905163003 | 31 | 325 | 6.4 | 17.7 | 0.00 | 0.00 | 0.00 | 71 | 1012.5 |
| 20260905161558 | 31 | 355 | 4.8 | 12.9 | 0.00 | 0.00 | 0.00 | 74 | 1012.5 |
| 20260905160056 | 31 | 281 | 4.8 | 14.5 | 0.00 | 0.00 | 0.00 | 74 | 1012.5 |
| 20260905154552 | 31 | 344 | 3.2 | 9.7 | 0.00 | 0.00 | 0.00 | 75 | 1012.4 |
| 20260905153047 | 30 | 326 | 3.2 | 9.7 | 0.00 | 0.00 | 0.00 | 75 | 1012.5 |
| 20260905151548 | 30 | 292 | 1.6 | 8.0 | 0.00 | 0.00 | 0.00 | 79 | 1012.5 |
| 20260905150043 | 30 | 300 | 3.2 | 9.7 | 0.00 | 0.00 | 0.00 | 79 | 1012.3 |
| 20260905144539 | 29 | 302 | 1.6 | 9.7 | 0.00 | 0.00 | 0.00 | 79 | 1012.2 |
| 20260905143035 | 28 | 289 | 1.6 | 6.4 | 0.00 | 0.00 | 0.00 | 82 | 1012.2 |
| 20260905141530 | 28 | 240 | 1.6 | 6.4 | 0.00 | 0.00 | 0.00 | 83 | 1012.2 |
| 20260905140026 | 27 | 254 | 1.6 | 6.4 | 0.00 | 0.00 | 0.00 | 86 | 1012.3 |
| 20260905134528 | 27 | 325 | 0.0 | 4.8 | 0.00 | 0.00 | 0.00 | 86 | 1012.5 |
| 20260905133018 | 26 | 271 | 0.0 | 3.2 | 0.00 | 0.00 | 0.00 | 88 | 1012.2 |
| 20260905131516 | 25 | 273 | 0.0 | 4.8 | 0.00 | 0.00 | 0.00 | 93 | 1012.3 |
| 20260905130010 | 25 | 178 | 0.0 | 3.2 | 0.00 | 0.00 | 0.00 | 96 | 1012.2 |
| 20260905124513 | 23 | 177 | 0.0 | 1.6 | 0.00 | 0.00 | 0.00 | 97 | 1012.1 |
| 20260905123001 | 23 | 177 | 0.0 | 4.8 | 0.00 | 0.00 | 0.00 | 97 | 1012.1 |
| 20260905121557 | 23 | 202 | 3.2 | 11.3 | 0.00 | 0.00 | 0.00 | 97 | 1011.9 |
| 20260905120054 | 22 | 192 | 4.8 | 9.7 | 0.00 | 0.00 | 0.00 | 97 | 1011.7 |
| 20260905114553 | 22 | 185 | 3.2 | 8.0 | 0.00 | 0.00 | 0.00 | 98 | 1011.6 |
| 20260905113150 | 22 | 180 | 4.8 | 8.0 | 0.00 | 0.00 | 0.00 | 97 | 1011.6 |
| 20260905111553 | 22 | 144 | 0.0 | 0.0 | 0.00 | 0.00 | 0.00 | 97 | 1011.5 |
| 20260905110049 | 22 | 136 | 0.0 | 0.0 | 0.00 | 0.00 | 0.00 | 97 | 1011.4 |
| 20260905104603 | 23 | 136 | 0.0 | 0.0 | 0.00 | 0.00 | 0.00 | 96 | 1011.5 |
| 20260905103045 | 23 | 136 | 0.0 | 0.0 | 0.00 | 0.00 | 0.00 | 95 | 1011.6 |
| 20260905101543 | 23 | 136 | 0.0 | 1.6 | 0.00 | 0.00 | 0.00 | 95 | 1011.8 |
| 20260905100044 | 23 | 136 | 0.0 | 0.0 | 0.00 | 0.00 | 0.00 | 94 | 1011.6 |
| 20260905094540 | 24 | 136 | 0.0 | 1.6 | 0.00 | 0.00 | 0.00 | 93 | 1011.6 |
| 20260905093039 | 24 | 136 | 0.0 | 0.0 | 0.00 | 0.00 | 0.00 | 93 | 1011.5 |
| 20260905091539 | 25 | 227 | 0.0 | 3.2 | 0.00 | 0.00 | 0.00 | 92 | 1011.5 |
| 20260905090056 | 25 | 227 | 0.0 | 3.2 | 0.00 | 0.00 | 0.00 | 91 | 1011.4 |
| 20260905084537 | 25 | 233 | 0.0 | 4.8 | 0.00 | 0.00 | 0.00 | 91 | 1011.4 |
| 20260905083035 | 25 | 215 | 1.6 | 4.8 | 0.00 | 0.00 | 0.00 | 92 | 1011.6 |
| 20260905081534 | 24 | 200 | 3.2 | 4.8 | 0.00 | 0.00 | 0.00 | 92 | 1011.5 |
| 20260905080033 | 24 | 190 | 1.6 | 4.8 | 0.00 | 0.00 | 0.00 | 94 | 1011.6 |
| 20260905074532 | 24 | 184 | 0.0 | 0.0 | 0.00 | 0.00 | 0.00 | 94 | 1011.7 |
| 20260905073034 | 24 | 184 | 0.0 | 4.8 | 0.00 | 0.00 | 0.00 | 95 | 1011.8 |
| 20260905071529 | 24 | 196 | 1.6 | 4.8 | 0.00 | 0.00 | 0.00 | 97 | 1012.0 |
| 20260905070028 | 24 | 201 | 1.6 | 3.2 | 0.00 | 0.00 | 0.00 | 97 | 1011.9 |
| 20260905064530 | 24 | 130 | 1.6 | 3.2 | 0.00 | 0.00 | 0.00 | 98 | 1012.0 |
| 20260905063027 | 24 | 130 | 0.0 | 0.0 | 0.00 | 0.00 | 0.00 | 97 | 1012.1 |
| 20260905061535 | 24 | 130 | 0.0 | 1.6 | 0.00 | 0.00 | 0.00 | 97 | 1012.2 |
| 20260905060025 | 24 | 130 | 1.6 | 4.8 | 0.00 | 0.00 | 0.00 | 97 | 1012.1 |
| 20260905054531 | 24 | 121 | 0.0 | 0.0 | 0.00 | 0.00 | 0.00 | 97 | 1012.1 |
| 20260905053024 | 24 | 121 | 0.0 | 0.0 | 0.00 | 0.00 | 0.00 | 96 | 1012.1 |
| 20260905051522 | 24 | 121 | 0.0 | 0.0 | 0.00 | 0.00 | 0.00 | 96 | 1012.0 |
| 20260905050018 | 24 | 121 | 0.0 | 0.0 | 0.00 | 0.00 | 0.00 | 95 | 1012.1 |
| 20260905044525 | 25 | 309 | 0.0 | 0.0 | 0.00 | 0.00 | 0.00 | 95 | 1012.1 |
| 20260905043017 | 25 | 309 | 0.0 | 0.0 | 0.00 | 0.00 | 0.00 | 94 | 1011.9 |
| 20260905041520 | 25 | 309 | 0.0 | 0.0 | 0.00 | 0.00 | 0.00 | 95 | 1011.9 |
| 20260905040016 | 25 | 309 | 0.0 | 0.0 | 0.00 | 0.00 | 0.00 | 95 | 1011.9 |
| 20260905034516 | 25 | 309 | 0.0 | 0.0 | 0.00 | 0.00 | 0.00 | 94 | 1012.1 |
| 20260905033016 | 25 | 309 | 0.0 | 0.0 | 0.00 | 0.00 | 0.00 | 93 | 1012.1 |
| 20260905031514 | 25 | 309 | 0.0 | 0.0 | 0.00 | 0.00 | 0.00 | 91 | 1012.2 |
| 20260905030013 | 26 | 309 | 0.0 | 0.0 | 0.00 | 0.00 | 0.00 | 89 | 1012.2 |
| 20260905024513 | 26 | 309 | 0.0 | 0.0 | 0.00 | 0.00 | 0.00 | 89 | 1012.1 |
| 20260905023013 | 26 | 309 | 0.0 | 0.0 | 0.00 | 0.00 | 0.00 | 87 | 1012.0 |
| 20260905021520 | 26 | 309 | 0.0 | 0.0 | 0.00 | 0.00 | 0.00 | 86 | 1011.9 |
| 20260905020011 | 27 | 309 | 0.0 | 0.0 | 0.00 | 0.00 | 0.00 | 85 | 1011.7 |
| 20260905014511 | 27 | 309 | 0.0 | 0.0 | 0.00 | 0.00 | 0.00 | 85 | 1011.4 |
| 20260905013010 | 27 | 309 | 0.0 | 0.0 | 0.00 | 0.00 | 0.00 | 86 | 1011.3 |
| 20260905011510 | 27 | 309 | 0.0 | 0.0 | 0.00 | 0.00 | 0.00 | 86 | 1011.2 |
| 20260905010011 | 28 | 309 | 0.0 | 0.0 | 0.00 | 0.00 | 0.00 | 84 | 1011.2 |
| 20260905004509 | 28 | 309 | 0.0 | 0.0 | 0.00 | 0.00 | 0.00 | 83 | 1011.1 |